Weather History for Minchumina, AK

Change the Weather History Date:

Thursday, February 7, 2013

  Actual Average Record
Temperature  
Mean Temperature 0 °F -  
Max Temperature 3 °F 5 °F 28 °F (2003)
Min Temperature -2 °F -3 °F -43 °F (1999)
Degree Days  
Heating Degree Days 64    
Moisture  
Dew Point -4 °F    
Average Humidity 81    
Maximum Humidity 92    
Minimum Humidity 72    
Precipitation  
Precipitation 0.00 in - - ()
Sea Level Pressure  
Sea Level Pressure 29.43 in    
Wind  
Wind Speed 3 mph (ENE)    
Max Wind Speed 7 mph    
Max Gust Speed -    
Visibility 9 miles    
Events      
Averages and records for this station are not official NWS values.
T = Trace of Precipitation, MM = Missing Value Source: NWS Daily Summary

Daily Weather History Graph

Daily Weather History Graph

Search for Another Location

Airport:

Trip Planner

Search our weather history database for the weather conditions in past years. The results will help you decide how hot, cold, wet, or windy it might be!

Date:

Astronomy

Feb. 07, 2013 Rise Set
Actual Time 9:27 AM AKST 5:20 PM AKST
Civil Twilight 8:34 AM AKST 6:13 PM AKST
Nautical Twilight 7:37 AM AKST 7:10 PM AKST
Astronomical Twilight 6:42 AM AKST 8:05 PM AKST
Moon 7:53 AM AKST (2/7) 2:23 PM AKST (2/7)
Length of Visible Light 9h 39m
Length of Day
7h 52m
Waning Crescent, 8% of the Moon is Illuminated
Feb 7
Waning Crescent
Feb 9
New
Feb 17
First Quarter
Feb 25
Full
Mar 4
Last Quarter

Hourly Weather History & Observations

Time (AKST) Temp. Windchill Dew Point Humidity Pressure Visibility Wind Dir Wind Speed Gust Speed Precip Events Conditions
12:16 AM -0.4 °F -10.4 °F -5.8 °F 78% 29.64 in 10.0 mi NE 4.6 mph - N/A   Overcast
12:36 AM -0.4 °F -8.3 °F -5.8 °F 78% 29.63 in 10.0 mi NE 3.5 mph - N/A   Overcast
12:56 AM -0.4 °F -8.3 °F -5.8 °F 78% 29.63 in 10.0 mi ENE 3.5 mph - N/A   Overcast
1:16 AM -0.4 °F -8.3 °F -5.8 °F 78% 29.62 in 10.0 mi NE 3.5 mph - N/A   Overcast
1:36 AM -0.4 °F - -5.8 °F 78% 29.61 in 10.0 mi Calm Calm - N/A   Overcast
1:56 AM -0.4 °F - -5.8 °F 78% 29.60 in 10.0 mi Calm Calm - N/A   Overcast
2:16 AM -0.4 °F -8.3 °F -5.8 °F 78% 29.59 in 10.0 mi NE 3.5 mph - N/A   Overcast
2:36 AM -0.4 °F -10.4 °F -5.8 °F 78% 29.59 in 10.0 mi ENE 4.6 mph - N/A   Overcast
2:56 AM -0.4 °F - -5.8 °F 78% 29.57 in 10.0 mi Calm Calm - N/A   Overcast
3:16 AM -0.4 °F - -4.0 °F 85% 29.58 in 10.0 mi Calm Calm - N/A   Overcast
3:36 AM -0.4 °F -8.3 °F -5.8 °F 78% 29.57 in 10.0 mi ENE 3.5 mph - N/A   Overcast
3:56 AM -0.4 °F -8.3 °F -5.8 °F 78% 29.56 in 10.0 mi NE 3.5 mph - N/A   Overcast
4:16 AM -0.4 °F -8.3 °F -5.8 °F 78% 29.55 in 10.0 mi ENE 3.5 mph - N/A   Overcast
4:36 AM -0.4 °F -10.4 °F -5.8 °F 78% 29.54 in 10.0 mi NE 4.6 mph - N/A   Overcast
4:56 AM -0.4 °F -8.3 °F -5.8 °F 78% 29.53 in 10.0 mi NE 3.5 mph - N/A   Overcast
5:16 AM -0.4 °F -10.4 °F -4.0 °F 85% 29.53 in 6.0 mi ENE 4.6 mph - N/A   Overcast
5:36 AM -0.4 °F -8.3 °F -5.8 °F 78% 29.53 in 2.0 mi ENE 3.5 mph - N/A   Overcast
5:56 AM -0.4 °F -8.3 °F -4.0 °F 85% 29.52 in 2.5 mi ENE 3.5 mph - N/A   Overcast
6:16 AM -0.4 °F - -4.0 °F 85% 29.51 in 4.0 mi Calm Calm - N/A   Overcast
6:36 AM -0.4 °F - -4.0 °F 85% 29.50 in 10.0 mi Calm Calm - N/A   Overcast
6:56 AM -0.4 °F -8.3 °F -4.0 °F 85% 29.49 in 9.0 mi NE 3.5 mph - N/A   Overcast
7:16 AM -0.4 °F -12.0 °F -4.0 °F 85% 29.49 in 5.0 mi ENE 5.8 mph - N/A   Overcast
7:36 AM -0.4 °F -12.0 °F -4.0 °F 85% 29.48 in 2.5 mi NE 5.8 mph - N/A   Overcast
7:56 AM -0.4 °F -10.4 °F -4.0 °F 85% 29.48 in 4.0 mi ENE 4.6 mph - N/A   Overcast
8:16 AM -0.4 °F -8.3 °F -4.0 °F 85% 29.46 in 10.0 mi NE 3.5 mph - N/A   Overcast
8:36 AM -0.4 °F -10.4 °F -5.8 °F 78% 29.45 in 10.0 mi NE 4.6 mph - N/A   Mostly Cloudy
8:56 AM -2.2 °F - -5.8 °F 85% 29.44 in 10.0 mi Calm Calm - N/A   Partly Cloudy
9:16 AM -0.4 °F -8.3 °F -5.8 °F 78% 29.44 in 10.0 mi ENE 3.5 mph - N/A   Partly Cloudy
9:36 AM -2.2 °F -12.5 °F -5.8 °F 85% 29.44 in 10.0 mi NE 4.6 mph - N/A   Partly Cloudy
9:56 AM -2.2 °F - -5.8 °F 85% 29.43 in 10.0 mi Calm Calm - N/A   Scattered Clouds
10:16 AM -0.4 °F - -4.0 °F 85% 29.42 in 10.0 mi Calm Calm - N/A   Mostly Cloudy
10:36 AM -0.4 °F -8.3 °F -4.0 °F 85% 29.42 in 10.0 mi ENE 3.5 mph - N/A   Overcast
10:56 AM -0.4 °F - -5.8 °F 78% 29.41 in 10.0 mi Calm Calm - N/A   Overcast
11:16 AM -0.4 °F - -4.0 °F 85% 29.41 in 10.0 mi Calm Calm - N/A   Overcast
11:36 AM -0.4 °F -8.3 °F -5.8 °F 78% 29.40 in 10.0 mi ENE 3.5 mph - N/A   Overcast
11:56 AM 1.4 °F - -2.2 °F 85% 29.40 in 10.0 mi Calm Calm - N/A   Overcast
12:16 PM 1.4 °F - -5.8 °F 72% 29.39 in 10.0 mi Calm Calm - N/A   Overcast
12:36 PM 1.4 °F - -2.2 °F 85% 29.39 in 10.0 mi Calm Calm - N/A   Overcast
12:56 PM 3.2 °F - -2.2 °F 78% 29.38 in 10.0 mi Calm Calm - N/A   Overcast
1:16 PM 3.2 °F - -4.0 °F 72% 29.38 in 10.0 mi Calm Calm - N/A   Overcast
1:36 PM 3.2 °F - -2.2 °F 78% 29.38 in 10.0 mi Calm Calm - N/A   Overcast
1:56 PM 3.2 °F - -2.2 °F 78% 29.38 in 10.0 mi Calm Calm - N/A   Mostly Cloudy
2:16 PM 3.2 °F - -4.0 °F 72% 29.38 in 10.0 mi Calm Calm - N/A   Overcast
2:36 PM 3.2 °F - -2.2 °F 78% 29.37 in 10.0 mi Calm Calm - N/A   Overcast
2:56 PM 3.2 °F -4.2 °F -2.2 °F 78% 29.36 in 10.0 mi NE 3.5 mph - N/A   Mostly Cloudy
3:16 PM 3.2 °F -4.2 °F -2.2 °F 78% 29.36 in 10.0 mi ENE 3.5 mph - N/A   Overcast
3:36 PM 3.2 °F -6.2 °F -2.2 °F 78% 29.35 in 10.0 mi East 4.6 mph - N/A   Overcast
3:56 PM 3.2 °F -6.2 °F -2.2 °F 78% 29.35 in 10.0 mi ENE 4.6 mph - N/A   Overcast
4:16 PM 3.2 °F -4.2 °F -2.2 °F 78% 29.34 in 10.0 mi East 3.5 mph - N/A   Overcast
4:36 PM 1.4 °F -8.3 °F -4.0 °F 78% 29.34 in 10.0 mi ENE 4.6 mph - N/A   Overcast
4:56 PM 1.4 °F -8.3 °F -2.2 °F 85% 29.33 in 10.0 mi ENE 4.6 mph - N/A   Overcast
5:16 PM 1.4 °F -8.3 °F -2.2 °F 85% 29.33 in 10.0 mi East 4.6 mph - N/A   Overcast
5:36 PM 1.4 °F -6.2 °F -2.2 °F 85% 29.32 in 10.0 mi East 3.5 mph - N/A   Overcast
5:56 PM 1.4 °F -9.9 °F -2.2 °F 85% 29.32 in 10.0 mi ESE 5.8 mph - N/A   Overcast
6:16 PM 1.4 °F -8.3 °F -4.0 °F 78% 29.32 in 10.0 mi ESE 4.6 mph - N/A   Overcast
6:36 PM 1.4 °F -8.3 °F -4.0 °F 78% 29.32 in 10.0 mi East 4.6 mph - N/A   Overcast
6:56 PM 3.2 °F -9.1 °F -2.2 °F 78% 29.32 in 10.0 mi East 6.9 mph - N/A   Overcast
7:16 PM 3.2 °F -4.2 °F -2.2 °F 78% 29.31 in 10.0 mi East 3.5 mph - N/A   Overcast
7:36 PM 3.2 °F -4.2 °F -2.2 °F 78% 29.31 in 10.0 mi East 3.5 mph - N/A   Overcast
7:56 PM 3.2 °F - -2.2 °F 78% 29.31 in 8.0 mi Calm Calm - N/A   Overcast
8:36 PM 3.2 °F -7.8 °F -2.2 °F 78% 29.31 in 4.0 mi ESE 5.8 mph - N/A   Overcast
8:56 PM 1.4 °F -8.3 °F -2.2 °F 85% 29.31 in 3.0 mi SE 4.6 mph - N/A   Overcast
9:16 PM 1.4 °F -8.3 °F -2.2 °F 85% 29.31 in 3.0 mi ESE 4.6 mph - N/A   Overcast
9:56 PM 1.4 °F -6.2 °F -4.0 °F 78% 29.32 in 4.0 mi SE 3.5 mph - N/A   Overcast
10:16 PM -0.4 °F - -2.2 °F 92% 29.32 in 2.5 mi Calm Calm - N/A   Overcast
10:36 PM -0.4 °F -8.3 °F -4.0 °F 85% 29.33 in 5.0 mi South 3.5 mph - N/A   Overcast
10:56 PM -0.4 °F - -4.0 °F 85% 29.33 in 9.0 mi Calm Calm - N/A   Overcast
11:16 PM -0.4 °F - -4.0 °F 85% 29.33 in 3.0 mi Calm Calm - N/A   Overcast
11:36 PM 1.4 °F - -2.2 °F 85% 29.33 in 6.0 mi Calm Calm - N/A   Mostly Cloudy
11:56 PM 1.4 °F - -2.2 °F 85% 29.33 in 7.0 mi Calm Calm - N/A   Overcast